| time (UTC) | temp F | wind direction | speed MPH | gust MPH | rain 1hr in | rain 24hr in | rain mn in | humidity % | barometer mb |
| 20260505140405 | 74 | 269 | 2.0 | 12.0 | 0.00 | 0.00 | 0.00 | 33 | 1012.1 |
| 20260505124904 | 71 | 259 | 2.0 | 7.0 | 0.00 | 0.00 | 0.00 | 37 | 1013.0 |
| 20260505124404 | 71 | 236 | 2.0 | 7.0 | 0.00 | 0.00 | 0.00 | 38 | 1013.1 |
| 20260505123905 | 70 | 290 | 5.0 | 9.0 | 0.00 | 0.00 | 0.00 | 38 | 1013.2 |
| 20260505123404 | 70 | 199 | 4.0 | 9.0 | 0.00 | 0.00 | 0.00 | 38 | 1013.2 |
| 20260505121904 | 71 | 266 | 2.0 | 7.0 | 0.00 | 0.00 | 0.00 | 38 | 1013.4 |
| 20260505121404 | 71 | 355 | 2.0 | 10.0 | 0.00 | 0.00 | 0.00 | 38 | 1013.5 |
| 20260505114905 | 69 | 19 | 4.0 | 12.0 | 0.00 | 0.00 | 0.00 | 40 | 1013.9 |
| 20260505114404 | 69 | 301 | 3.0 | 12.0 | 0.00 | 0.00 | 0.00 | 41 | 1014.0 |
| 20260505111904 | 67 | 294 | 7.0 | 12.0 | 0.00 | 0.00 | 0.00 | 41 | 1014.5 |
| 20260505111405 | 68 | 265 | 6.0 | 12.0 | 0.00 | 0.00 | 0.00 | 40 | 1014.4 |
| 20260505110905 | 68 | 335 | 1.0 | 8.0 | 0.00 | 0.00 | 0.00 | 42 | 1014.4 |
| 20260505110404 | 67 | 223 | 0.0 | 3.0 | 0.00 | 0.00 | 0.00 | 43 | 1014.6 |
| 20260505101904 | 65 | 173 | 3.0 | 7.0 | 0.00 | 0.00 | 0.00 | 46 | 1014.8 |
| 20260505100905 | 64 | 266 | 2.0 | 7.0 | 0.00 | 0.00 | 0.00 | 46 | 1014.9 |
| 20260505094404 | 65 | 333 | 1.0 | 6.0 | 0.00 | 0.00 | 0.00 | 47 | 1015.0 |
| 20260505093905 | 64 | 288 | 1.0 | 5.0 | 0.00 | 0.00 | 0.00 | 48 | 1014.9 |
| 20260505093404 | 64 | 310 | 2.0 | 5.0 | 0.00 | 0.00 | 0.00 | 48 | 1015.0 |
| 20260505091904 | 63 | 320 | 3.0 | 6.0 | 0.00 | 0.00 | 0.00 | 49 | 1015.0 |
| 20260505091406 | 63 | 333 | 1.0 | 5.0 | 0.00 | 0.00 | 0.00 | 50 | 1015.1 |
| 20260505090904 | 63 | 320 | 1.0 | 6.0 | 0.00 | 0.00 | 0.00 | 50 | 1015.2 |
| 20260505090405 | 63 | 320 | 0.0 | 5.0 | 0.00 | 0.00 | 0.00 | 52 | 1015.2 |
| 20260505084904 | 63 | 41 | 2.0 | 5.0 | 0.00 | 0.00 | 0.00 | 54 | 1015.1 |
| 20260505084404 | 63 | 34 | 0.0 | 3.0 | 0.00 | 0.00 | 0.00 | 53 | 1015.1 |
| 20260505083905 | 63 | 0 | 1.0 | 7.0 | 0.00 | 0.00 | 0.00 | 54 | 1015.0 |
| 20260505083405 | 62 | 336 | 0.0 | 5.0 | 0.00 | 0.00 | 0.00 | 54 | 1015.2 |
| 20260505081905 | 61 | 33 | 0.0 | 3.0 | 0.00 | 0.00 | 0.00 | 56 | 1015.2 |
| 20260505081405 | 61 | 340 | 2.0 | 5.0 | 0.00 | 0.00 | 0.00 | 56 | 1015.3 |
| 20260505080904 | 61 | 21 | 0.0 | 6.0 | 0.00 | 0.00 | 0.00 | 57 | 1015.3 |
| 20260505080405 | 61 | 18 | 1.0 | 7.0 | 0.00 | 0.00 | 0.00 | 57 | 1015.3 |
| 20260505074904 | 61 | 351 | 2.0 | 3.0 | 0.00 | 0.00 | 0.00 | 57 | 1015.3 |
| 20260505073904 | 60 | 2 | 3.0 | 5.0 | 0.00 | 0.00 | 0.00 | 59 | 1015.3 |
| 20260505073404 | 61 | 17 | 1.0 | 5.0 | 0.00 | 0.00 | 0.00 | 59 | 1015.3 |
| 20260505071904 | 60 | 8 | 2.0 | 3.0 | 0.00 | 0.00 | 0.00 | 61 | 1015.2 |
| 20260505071405 | 60 | 5 | 0.0 | 0.0 | 0.00 | 0.00 | 0.00 | 61 | 1015.2 |
| 20260505070904 | 60 | 346 | 0.0 | 2.0 | 0.00 | 0.00 | 0.00 | 61 | 1015.2 |
| 20260505070404 | 60 | 30 | 0.0 | 0.0 | 0.00 | 0.00 | 0.00 | 62 | 1015.2 |
| 20260505064904 | 59 | 32 | 0.0 | 0.0 | 0.00 | 0.00 | 0.00 | 63 | 1015.1 |
| 20260505063905 | 59 | 26 | 0.0 | 3.0 | 0.00 | 0.00 | 0.00 | 62 | 1015.0 |
| 20260505061405 | 58 | 14 | 0.0 | 0.0 | 0.00 | 0.00 | 0.00 | 63 | 1014.9 |
| 20260505060904 | 57 | 0 | 0.0 | 2.0 | 0.00 | 0.00 | 0.00 | 63 | 1014.8 |
| 20260505060405 | 57 | 0 | 1.0 | 3.0 | 0.00 | 0.00 | 0.00 | 64 | 1014.8 |
| 20260505054905 | 57 | 348 | 0.0 | 0.0 | 0.00 | 0.00 | 0.00 | 64 | 1014.6 |
| 20260505053904 | 57 | 355 | 0.0 | 0.0 | 0.00 | 0.00 | 0.00 | 64 | 1014.4 |
| 20260505053405 | 57 | 355 | 0.0 | 0.0 | 0.00 | 0.00 | 0.00 | 64 | 1014.4 |
| 20260505051904 | 57 | 337 | 0.0 | 0.0 | 0.00 | 0.00 | 0.00 | 64 | 1014.2 |
| 20260505051404 | 57 | 332 | 0.0 | 1.0 | 0.00 | 0.00 | 0.00 | 64 | 1014.2 |
| 20260505050904 | 57 | 327 | 0.0 | 3.0 | 0.00 | 0.00 | 0.00 | 64 | 1014.2 |
| 20260505050405 | 57 | 324 | 0.0 | 3.0 | 0.00 | 0.00 | 0.00 | 64 | 1014.2 |
| 20260505041405 | 58 | 333 | 0.0 | 3.0 | 0.00 | 0.00 | 0.00 | 64 | 1014.1 |
| 20260505040905 | 58 | 334 | 0.0 | 1.0 | 0.00 | 0.00 | 0.00 | 63 | 1014.1 |
| 20260505040405 | 58 | 0 | 0.0 | 5.0 | 0.00 | 0.00 | 0.00 | 63 | 1014.1 |
| 20260505034904 | 58 | 344 | 1.0 | 3.0 | 0.00 | 0.00 | 0.00 | 63 | 1014.1 |
| 20260505033904 | 58 | 353 | 4.0 | 10.0 | 0.00 | 0.00 | 0.00 | 63 | 1014.1 |
| 20260505031904 | 59 | 357 | 2.0 | 6.0 | 0.00 | 0.00 | 0.00 | 64 | 1014.0 |
| 20260505031404 | 59 | 347 | 2.0 | 5.0 | 0.00 | 0.00 | 0.00 | 64 | 1014.0 |
| 20260505030905 | 59 | 341 | 1.0 | 3.0 | 0.00 | 0.00 | 0.00 | 64 | 1014.0 |
| 20260505030404 | 59 | 336 | 0.0 | 3.0 | 0.00 | 0.00 | 0.00 | 64 | 1014.0 |
| 20260505024905 | 59 | 13 | 0.0 | 3.0 | 0.00 | 0.00 | 0.00 | 63 | 1014.0 |
| 20260505024405 | 59 | 5 | 3.0 | 6.0 | 0.00 | 0.00 | 0.00 | 63 | 1014.0 |
| 20260505023905 | 59 | 329 | 1.0 | 6.0 | 0.00 | 0.00 | 0.00 | 62 | 1013.9 |
| 20260505023404 | 60 | 346 | 2.0 | 7.0 | 0.00 | 0.00 | 0.00 | 62 | 1013.9 |
| 20260505020904 | 60 | 332 | 1.0 | 3.0 | 0.00 | 0.00 | 0.00 | 62 | 1014.0 |
| 20260505020405 | 60 | 352 | 1.0 | 3.0 | 0.00 | 0.00 | 0.00 | 62 | 1014.0 |
| 20260505014905 | 60 | 337 | 0.0 | 1.0 | 0.00 | 0.00 | 0.00 | 62 | 1014.0 |
| 20260505014404 | 60 | 336 | 0.0 | 2.0 | 0.00 | 0.00 | 0.00 | 62 | 1014.0 |
| 20260505013404 | 60 | 337 | 0.0 | 0.0 | 0.00 | 0.00 | 0.00 | 62 | 1014.2 |
| 20260505011405 | 60 | 340 | 0.0 | 0.0 | 0.00 | 0.00 | 0.00 | 62 | 1014.2 |
| 20260505004904 | 60 | 34 | 0.0 | 0.0 | 0.00 | 0.00 | 0.00 | 63 | 1014.4 |
| 20260505004405 | 60 | 34 | 0.0 | 0.0 | 0.00 | 0.00 | 0.00 | 64 | 1014.4 |
| 20260505003405 | 59 | 50 | 0.0 | 0.0 | 0.00 | 0.00 | 0.00 | 68 | 1014.4 |
| 20260505001904 | 58 | 150 | 0.0 | 0.0 | 0.00 | 0.00 | 0.00 | 76 | 1014.5 |
| 20260505001404 | 58 | 150 | 0.0 | 0.0 | 0.00 | 0.00 | 0.00 | 78 | 1014.5 |
| 20260505000905 | 58 | 150 | 0.0 | 0.0 | 0.00 | 0.00 | 0.00 | 78 | 1014.5 |
| 20260505000405 | 58 | 150 | 0.0 | 0.0 | 0.00 | 0.00 | 0.00 | 78 | 1014.5 |
| 20260504234904 | 59 | 150 | 0.0 | 0.0 | 0.00 | 0.00 | 0.00 | 79 | 1014.5 |
| 20260504234405 | 59 | 150 | 0.0 | 0.0 | 0.00 | 0.00 | 0.00 | 79 | 1014.5 |
| 20260504233905 | 59 | 150 | 0.0 | 0.0 | 0.00 | 0.00 | 0.00 | 78 | 1014.4 |
| 20260504233404 | 59 | 150 | 0.0 | 0.0 | 0.00 | 0.00 | 0.00 | 78 | 1014.4 |
| 20260504231405 | 60 | 151 | 0.0 | 0.0 | 0.00 | 0.00 | 0.00 | 75 | 1014.4 |
| 20260504230904 | 60 | 151 | 0.0 | 0.0 | 0.00 | 0.00 | 0.00 | 75 | 1014.4 |
| 20260504224905 | 60 | 151 | 0.0 | 0.0 | 0.00 | 0.00 | 0.00 | 75 | 1014.4 |
| 20260504223905 | 60 | 151 | 0.0 | 0.0 | 0.00 | 0.00 | 0.00 | 74 | 1014.3 |
| 20260504221404 | 62 | 148 | 0.0 | 0.0 | 0.00 | 0.00 | 0.00 | 71 | 1014.2 |
| 20260504220904 | 63 | 148 | 0.0 | 0.0 | 0.00 | 0.00 | 0.00 | 69 | 1014.2 |
| 20260504220404 | 63 | 274 | 0.0 | 3.0 | 0.00 | 0.00 | 0.00 | 67 | 1014.2 |
| 20260504214904 | 63 | 267 | 1.0 | 3.0 | 0.00 | 0.00 | 0.00 | 67 | 1014.1 |
| 20260504214404 | 63 | 261 | 3.0 | 6.0 | 0.00 | 0.00 | 0.00 | 67 | 1014.1 |
| 20260504213904 | 63 | 259 | 3.0 | 8.0 | 0.00 | 0.00 | 0.00 | 66 | 1014.1 |
| 20260504213404 | 63 | 266 | 1.0 | 8.0 | 0.00 | 0.00 | 0.00 | 67 | 1014.0 |
| 20260504211405 | 63 | 253 | 0.0 | 5.0 | 0.00 | 0.00 | 0.00 | 65 | 1014.2 |
| 20260504210904 | 63 | 251 | 0.0 | 5.0 | 0.00 | 0.00 | 0.00 | 65 | 1014.1 |
| 20260504210404 | 64 | 263 | 2.0 | 6.0 | 0.00 | 0.00 | 0.00 | 65 | 1014.1 |
| 20260504204905 | 64 | 259 | 0.0 | 3.0 | 0.00 | 0.00 | 0.00 | 64 | 1014.0 |
| 20260504204405 | 64 | 238 | 0.0 | 5.0 | 0.00 | 0.00 | 0.00 | 63 | 1013.8 |
| 20260504203904 | 64 | 232 | 1.0 | 7.0 | 0.00 | 0.00 | 0.00 | 63 | 1013.7 |
| 20260504201404 | 65 | 264 | 5.0 | 12.0 | 0.00 | 0.00 | 0.00 | 61 | 1013.4 |
| 20260504200905 | 65 | 263 | 5.0 | 9.0 | 0.00 | 0.00 | 0.00 | 61 | 1013.4 |
| 20260504200405 | 65 | 261 | 3.0 | 12.0 | 0.00 | 0.00 | 0.00 | 61 | 1013.3 |
| 20260504193904 | 66 | 247 | 5.0 | 12.0 | 0.00 | 0.00 | 0.00 | 59 | 1012.9 |
| 20260504191904 | 67 | 250 | 7.0 | 12.0 | 0.00 | 0.00 | 0.00 | 57 | 1012.8 |
| 20260504191404 | 67 | 246 | 5.0 | 14.0 | 0.00 | 0.00 | 0.00 | 57 | 1012.8 |
| 20260504190904 | 67 | 249 | 4.0 | 12.0 | 0.00 | 0.00 | 0.00 | 57 | 1012.7 |
| 20260504190404 | 67 | 245 | 5.0 | 14.0 | 0.00 | 0.00 | 0.00 | 57 | 1012.7 |
| 20260504184904 | 68 | 241 | 6.0 | 15.0 | 0.00 | 0.00 | 0.00 | 56 | 1012.5 |
| 20260504184404 | 68 | 235 | 4.0 | 10.0 | 0.00 | 0.00 | 0.00 | 55 | 1012.5 |
| 20260504183404 | 69 | 243 | 5.0 | 17.0 | 0.00 | 0.00 | 0.00 | 54 | 1012.3 |
| 20260504181905 | 69 | 249 | 5.0 | 13.0 | 0.00 | 0.00 | 0.00 | 55 | 1012.3 |
| 20260504181404 | 70 | 237 | 7.0 | 16.0 | 0.00 | 0.00 | 0.00 | 54 | 1012.3 |
| 20260504180904 | 70 | 251 | 6.0 | 13.0 | 0.00 | 0.00 | 0.00 | 54 | 1012.3 |
| 20260504180405 | 70 | 252 | 5.0 | 16.0 | 0.00 | 0.00 | 0.00 | 55 | 1012.3 |
| 20260504174904 | 70 | 241 | 8.0 | 16.0 | 0.00 | 0.00 | 0.00 | 54 | 1012.2 |
| 20260504174405 | 71 | 225 | 5.0 | 12.0 | 0.00 | 0.00 | 0.00 | 54 | 1012.2 |
| 20260504173904 | 71 | 237 | 6.0 | 14.0 | 0.00 | 0.00 | 0.00 | 52 | 1012.2 |
| 20260504173404 | 71 | 223 | 6.0 | 17.0 | 0.00 | 0.00 | 0.00 | 53 | 1012.2 |
| 20260504171904 | 71 | 204 | 9.0 | 18.0 | 0.00 | 0.00 | 0.00 | 53 | 1012.1 |
| 20260504171405 | 71 | 213 | 7.0 | 12.0 | 0.00 | 0.00 | 0.00 | 53 | 1012.3 |
| 20260504170905 | 71 | 225 | 7.0 | 20.0 | 0.00 | 0.00 | 0.00 | 53 | 1012.2 |
| 20260504170405 | 72 | 212 | 9.0 | 17.0 | 0.00 | 0.00 | 0.00 | 52 | 1012.2 |
| 20260504160404 | 75 | 252 | 5.0 | 12.0 | 0.00 | 0.00 | 0.00 | 35 | 1012.1 |
| 20260504150905 | 74 | 245 | 0.0 | 6.0 | 0.00 | 0.00 | 0.00 | 35 | 1012.5 |
| 20260504150404 | 74 | 252 | 3.0 | 17.0 | 0.00 | 0.00 | 0.00 | 36 | 1012.7 |